GFSSW_925_temp_057.txt.gz
Temp
16 18 18 18 18 19 19 19 20 21 21 22 22 23 24 25 25 25 23 24 24 24 25 24 24 23 23 19 18 18 21 20 20 18 21 16 17 16 15 16 14 15 15 12 11
17 18 18 18 19 19 19 20 20 21 21 22 23 24 24 25 25 24 24 24 25 25 25 25 23 23 20 20 18 20 19 20 19 18 19 17 17 17 17 16 16 15 11 9 8
17 18 18 19 19 19 20 20 20 21 22 22 23 24 25 25 24 24 24 25 25 25 25 24 23 22 22 20 19 17 20 19 19 18 18 17 16 16 17 16 17 17 14 8 8
17 18 18 19 19 20 20 20 20 21 22 23 23 24 25 25 24 24 25 25 25 25 24 23 22 22 21 21 18 20 18 18 18 18 17 17 16 16 15 20 17 17 14 9 9
18 19 19 19 19 20 20 20 21 21 22 23 23 24 24 23 23 25 25 25 25 24 23 22 22 20 22 19 18 19 18 17 17 17 16 16 16 17 16 17 14 13 11 10 10
18 19 19 20 20 20 21 21 21 22 23 23 23 24 24 23 25 25 25 24 24 24 22 22 21 19 18 18 19 17 17 17 16 17 16 16 17 16 18 15 14 13 12 11 11
18 19 20 20 20 21 21 21 22 22 23 23 23 23 22 23 25 24 24 24 24 23 22 21 21 21 18 18 16 17 18 17 16 16 17 15 17 16 18 15 15 13 13 11 10
18 19 20 21 21 21 21 22 22 23 23 23 23 23 21 24 24 24 24 23 23 23 23 21 21 17 18 16 17 18 17 19 18 16 16 17 20 19 16 15 17 15 13 12 11
19 19 21 21 21 21 22 23 23 23 24 23 23 22 22 23 23 23 24 23 23 22 21 21 20 16 17 18 18 16 20 18 18 15 16 16 18 18 14 13 16 16 15 13 12
19 20 21 20 21 22 23 24 23 23 23 22 22 22 23 23 23 23 23 23 22 21 21 19 16 17 15 18 20 20 19 18 17 17 15 15 16 18 17 14 17 17 16 14 13
20 20 20 20 21 22 23 23 21 21 22 22 22 21 21 23 23 22 22 22 21 20 20 18 19 19 18 17 18 19 18 17 17 17 16 16 16 17 19 14 16 17 16 16 15
19 20 20 21 22 22 22 19 19 20 20 20 19 20 21 22 22 21 22 22 21 20 19 18 18 18 18 17 17 17 17 17 17 15 15 16 16 19 19 18 17 17 17 16 16
20 20 21 22 22 22 21 20 20 19 18 19 20 21 21 21 21 21 21 20 20 20 19 18 20 18 19 18 18 17 17 17 18 16 15 14 16 17 19 15 15 14 15 15 15
20 20 21 21 21 21 20 20 19 19 17 20 21 21 21 21 21 20 20 21 20 20 18 17 18 19 19 18 17 17 16 16 17 17 17 16 18 18 18 18 16 17 15 15 14
19 20 21 21 21 20 19 20 19 19 19 21 21 21 20 21 20 20 20 20 20 20 19 20 19 18 18 18 17 18 17 17 16 15 15 15 16 18 16 21 22 19 18 16 14
20 20 20 20 20 20 20 20 19 19 19 21 20 20 20 20 20 20 20 19 19 19 18 17 17 18 18 17 17 17 17 14 12 14 16 15 16 19 19 22 20 19 19 17 16
20 20 20 20 19 20 20 18 18 18 20 21 21 20 20 20 20 19 19 19 19 20 18 17 18 17 17 18 17 16 16 18 18 18 19 14 14 19 20 19 18 19 19 18 15
19 20 20 19 19 20 19 17 19 20 19 20 20 19 20 20 20 19 18 17 16 18 16 17 20 17 17 18 18 16 16 17 19 18 17 13 16 21 19 18 16 16 15 14 16
19 19 18 18 19 19 15 16 17 17 20 20 20 20 20 19 19 19 18 17 17 16 18 17 18 16 16 16 17 16 16 15 16 13 14 15 16 18 19 20 20 19 16 17 17
19 18 17 17 18 19 15 16 17 17 19 20 21 20 20 19 19 19 19 18 19 16 16 18 17 17 16 16 14 16 15 17 14 17 17 16 15 19 20 21 21 20 19 19 19
18 15 16 17 18 14 15 14 17 17 18 20 19 19 18 20 19 18 19 18 17 16 16 16 16 17 16 16 16 14 15 13 13 13 16 15 16 17 19 20 18 18 18 18 18
14 16 16 17 14 9 13 15 17 19 18 19 18 18 18 18 18 17 17 18 16 16 17 15 13 15 17 15 15 15 14 14 15 16 12 12 16 20 19 18 16 19 19 18 16
11 12 16 17 14 12 14 16 17 18 18 18 18 17 17 18 18 16 17 16 15 16 16 15 14 14 16 16 15 15 14 14 12 11 13 17 19 18 17 20 18 17 18 17 14
10 14 12 9 9 13 16 17 18 17 18 17 17 17 17 17 15 17 17 16 15 15 15 14 13 16 17 17 16 15 14 13 14 14 18 16 18 19 20 19 18 18 16 15 13
8 12 11 13 13 13 15 16 16 17 16 16 16 16 16 16 16 15 15 16 14 14 13 13 13 12 13 14 14 15 14 14 14 17 16 18 18 19 20 18 17 15 14 13 14
10 11 8 10 11 12 13 14 14 16 17 16 16 15 14 14 15 16 16 15 15 12 12 10 13 12 11 13 13 13 13 14 14 15 15 16 16 18 18 15 14 16 13 13 13
8 9 10 10 10 11 12 13 14 15 15 15 15 14 14 13 13 13 12 13 14 14 11 10 11 11 15 13 12 12 13 15 14 13 14 15 18 15 15 14 15 16 12 13 13

GFSSW_925_temp_060.txt.gz
Temp
14 16 17 18 18 18 19 19 20 20 21 22 22 23 23 24 24 24 26 25 24 25 25 23 24 23 24 24 23 24 27 27 27 26 28 23 23 21 21 23 20 21 22 18 15
15 17 18 18 19 19 19 19 20 20 21 22 23 23 24 24 25 27 24 24 25 25 24 26 27 25 26 24 24 26 26 27 26 26 26 24 23 24 21 22 21 21 19 13 13
16 17 18 19 19 19 19 20 21 21 22 22 23 24 25 25 27 27 25 25 25 25 25 24 24 26 26 24 24 24 26 26 26 24 23 23 21 22 22 24 24 24 23 16 14
17 17 18 19 19 19 20 20 21 21 22 22 23 24 25 25 26 25 25 25 25 24 24 25 26 26 25 25 23 24 25 23 23 21 21 22 22 22 22 25 25 24 24 18 16
17 17 18 18 19 20 20 21 21 22 22 22 23 24 25 28 27 25 25 25 25 24 24 26 26 26 25 24 23 23 24 22 22 21 21 21 21 22 23 23 24 21 19 19 18
18 18 18 19 20 20 21 21 22 22 22 22 23 24 25 27 25 24 24 24 24 24 23 24 26 25 24 24 23 22 22 23 22 22 21 20 22 19 25 23 24 22 20 20 19
18 18 18 19 20 20 22 22 22 22 22 23 23 23 25 27 24 24 24 24 24 23 24 22 23 24 23 23 21 21 23 25 24 22 22 20 22 20 25 22 23 23 22 21 20
18 18 18 19 20 21 22 22 22 23 23 23 23 23 26 24 24 24 24 23 23 23 22 21 21 22 22 21 22 23 23 25 23 21 21 20 25 27 26 24 23 24 24 22 21
18 19 19 20 20 21 22 22 23 23 23 23 22 24 26 23 23 23 23 24 22 22 21 20 22 22 21 24 25 24 26 25 25 21 21 21 25 27 24 22 24 26 26 25 23
18 19 19 19 20 22 22 23 22 22 22 22 22 25 24 24 23 23 23 22 24 23 23 23 23 24 23 25 25 25 25 26 24 23 20 22 22 25 26 25 24 25 26 26 25
18 19 19 20 21 23 22 22 23 24 22 25 25 24 23 23 23 23 22 23 24 24 24 22 24 25 27 25 24 23 23 24 25 24 20 23 24 24 26 26 25 25 25 25 26
18 19 20 21 22 22 22 23 21 21 24 20 21 22 21 22 24 23 22 24 24 25 22 23 24 26 22 21 21 22 22 24 24 20 19 23 22 24 26 26 25 26 25 25 25
19 20 21 21 21 21 20 19 20 20 23 22 21 22 23 22 24 24 23 23 24 23 23 24 25 20 21 22 21 23 22 23 22 21 22 21 25 26 29 25 24 24 24 23 22
19 20 20 21 21 20 19 19 19 20 23 23 22 22 22 22 23 21 21 23 23 23 22 23 21 21 21 22 22 22 21 20 20 21 23 21 23 25 27 27 28 27 26 25 23
19 19 20 21 21 20 19 19 20 20 24 22 22 21 22 23 22 22 20 22 23 23 22 24 22 21 21 22 21 22 19 20 19 21 20 21 21 27 25 28 28 27 26 25 24
19 20 20 20 20 19 19 20 20 24 24 22 22 22 22 21 22 21 22 22 21 21 21 22 19 21 21 19 19 18 20 19 18 20 22 21 21 26 27 26 26 27 27 25 24
19 20 20 20 20 20 20 20 23 23 22 22 22 21 22 22 22 22 22 22 23 23 23 22 21 19 19 20 19 20 22 24 24 24 24 19 20 24 26 26 25 25 25 25 25
19 19 19 19 19 19 19 23 22 22 22 21 21 21 22 22 22 21 21 23 20 21 22 22 24 21 19 20 21 20 21 23 22 24 24 18 21 25 25 25 25 23 23 25 24
18 18 18 18 19 19 22 22 23 22 21 22 22 22 22 21 21 22 22 23 21 21 23 23 22 18 18 18 19 19 21 19 21 19 19 23 23 24 26 27 27 25 24 23 23
18 17 16 17 18 19 22 20 21 20 20 21 23 22 23 23 22 22 23 21 21 19 19 21 22 19 18 18 17 19 19 21 21 21 21 23 22 24 26 26 26 24 23 23 22
18 20 16 17 18 21 21 21 20 19 20 22 22 22 22 22 22 22 23 21 20 19 19 21 21 21 18 19 21 18 20 19 19 20 22 22 24 25 24 25 22 23 23 22 21
15 20 16 17 20 17 20 19 18 20 19 20 20 21 22 21 21 21 22 22 18 19 20 19 20 21 22 17 17 18 20 21 21 21 21 21 20 24 25 24 23 22 22 21 20
17 16 15 16 20 19 17 18 18 19 20 19 20 20 19 21 21 21 20 18 17 18 20 19 20 20 22 18 17 18 18 19 19 18 19 20 22 24 24 25 23 22 22 21 19
16 19 17 16 15 19 18 19 19 17 19 19 19 19 19 19 19 20 20 18 17 18 15 17 20 20 21 22 22 20 19 19 20 19 21 21 22 24 24 24 22 21 20 20 19
14 17 15 18 17 17 18 18 18 19 18 18 18 19 19 19 19 19 18 18 16 15 16 18 18 20 20 20 20 19 19 20 19 19 20 21 21 22 22 21 20 19 20 18 18
15 16 13 15 14 16 15 18 18 18 18 18 18 17 18 19 20 19 18 18 19 16 16 15 18 17 17 18 18 17 18 18 19 19 19 20 19 21 20 19 18 19 19 17 17
9 10 15 12 14 17 18 18 17 17 16 16 17 17 17 17 17 17 17 18 18 18 18 17 17 17 17 18 16 17 19 18 18 19 19 18 20 18 17 17 17 17 17 17 17

GFSSW_925_temp_063.txt.gz
Temp
16 16 16 17 18 19 19 20 20 20 20 21 22 22 23 23 24 24 28 26 25 25 25 26 26 26 27 27 27 27 27 28 29 29 29 28 27 28 26 26 25 26 26 22 20
18 16 17 17 18 19 19 20 20 21 21 21 22 23 23 23 23 29 26 25 25 25 25 28 29 28 29 28 27 27 27 28 30 29 28 29 27 28 25 26 26 26 25 19 18
17 16 17 18 18 19 19 20 21 21 21 22 22 23 23 24 27 29 25 25 25 25 26 27 27 28 28 28 28 28 26 29 28 28 27 27 27 27 25 25 28 27 27 21 18
17 17 17 18 18 19 19 20 21 21 22 22 23 24 24 23 27 27 25 25 25 25 26 27 28 28 28 27 27 25 28 28 27 26 24 25 27 26 26 26 28 28 28 25 20
17 17 18 18 18 19 20 20 21 21 22 22 23 24 24 28 29 25 25 25 24 25 27 28 28 28 27 28 26 26 27 27 26 25 24 24 24 24 25 27 28 27 25 26 22
17 18 18 19 19 19 20 20 21 21 22 22 23 24 25 28 25 25 24 24 26 26 27 27 27 28 27 26 26 26 25 26 26 26 25 23 24 24 26 28 27 27 26 24 24
18 18 18 19 19 19 20 20 21 22 22 23 23 24 27 28 25 25 24 25 24 26 27 25 26 26 27 27 26 25 24 27 28 26 25 23 24 24 27 28 28 27 27 26 24
18 18 18 19 19 19 20 21 21 22 22 23 23 23 27 25 24 24 25 25 24 24 24 23 24 26 25 25 25 25 27 27 26 25 24 22 26 29 31 29 28 28 28 28 26
18 18 18 19 19 20 20 21 22 22 23 23 23 25 27 24 25 25 25 26 25 24 23 23 24 26 24 25 27 28 27 28 28 25 25 23 25 28 29 29 28 28 28 29 29
18 18 19 19 20 20 21 21 22 22 22 22 23 25 26 27 24 24 24 24 26 25 25 25 26 25 26 26 26 27 27 27 27 28 24 24 25 28 29 29 29 29 29 29 29
18 18 19 20 20 20 21 21 24 24 24 26 27 27 26 25 23 25 24 25 26 26 25 26 25 27 28 28 27 26 25 25 27 26 23 24 25 27 28 29 29 29 30 30 29
18 19 19 20 20 21 20 25 23 22 25 25 24 24 24 24 26 26 24 25 25 25 27 25 25 27 25 24 24 25 25 25 27 23 22 24 24 26 29 28 27 27 27 27 27
18 19 19 20 20 21 22 22 20 20 25 24 24 24 25 24 25 26 25 26 25 25 26 25 27 24 24 25 24 25 25 25 24 24 25 24 26 29 30 30 29 28 28 27 26
18 19 19 20 21 22 23 21 21 19 25 25 23 24 23 24 24 24 24 25 25 25 26 25 25 23 24 24 25 24 23 23 23 22 24 25 24 28 29 30 28 28 27 26 25
19 19 20 20 22 23 21 20 19 21 23 24 23 23 24 24 24 23 22 24 24 25 24 26 25 23 24 24 23 25 21 22 22 22 23 24 22 28 30 28 28 28 27 26 26
19 19 20 20 21 20 20 20 20 23 25 24 24 24 24 24 24 23 23 23 23 24 25 25 23 23 24 22 22 22 22 23 22 22 22 25 23 27 29 27 28 27 26 26 26
19 19 19 20 22 20 20 21 23 24 24 24 24 24 24 24 24 24 24 24 25 24 26 25 24 22 21 22 21 22 24 25 24 23 25 23 22 25 28 28 27 25 26 26 26
19 18 19 19 19 19 20 23 23 25 25 23 24 23 24 24 24 24 24 25 24 24 24 25 25 23 22 23 23 23 23 24 23 25 25 22 22 26 27 27 27 26 26 25 25
18 18 19 18 19 19 23 23 25 25 24 24 23 24 25 24 24 24 25 26 25 24 24 25 25 21 21 21 21 22 22 22 22 24 23 25 26 26 28 28 28 26 25 24 23
19 20 20 18 19 20 23 23 24 23 23 23 24 25 25 25 24 25 26 25 23 22 23 24 23 22 20 19 20 21 21 22 22 22 23 26 26 26 27 27 26 24 24 23 22
18 21 17 18 18 22 22 24 23 23 22 23 24 24 25 25 25 25 25 23 23 21 22 23 23 22 20 21 23 21 21 21 21 23 22 22 25 26 26 26 25 25 24 23 22
18 20 16 17 21 23 22 23 19 22 21 22 22 24 24 24 24 24 24 24 22 22 22 23 23 22 24 21 20 21 22 23 22 23 23 23 23 27 26 26 25 25 24 24 22
20 20 16 16 21 21 21 21 21 21 22 22 22 22 23 23 22 24 23 21 20 21 22 22 22 21 24 21 20 20 22 21 22 22 21 21 22 26 27 27 26 24 23 22 22
18 20 18 18 19 21 22 21 21 20 21 22 22 21 21 22 23 22 22 19 19 20 16 18 21 21 21 22 23 22 22 22 21 20 21 22 23 24 24 24 23 22 21 21 21
17 19 18 19 19 19 21 21 21 21 20 21 21 21 22 22 22 21 22 21 19 16 18 20 20 21 21 22 21 21 20 20 20 21 20 22 21 23 23 21 20 20 20 20 19
17 17 16 19 18 19 18 21 21 22 21 20 20 21 21 21 22 21 21 21 21 18 19 18 19 20 19 20 20 20 20 20 20 20 20 21 21 23 21 20 19 19 19 18 18
13 13 16 16 18 19 21 20 20 21 19 19 20 21 20 20 19 19 19 20 20 19 20 19 19 18 17 20 19 18 21 21 21 21 21 20 21 22 19 18 17 17 18 17 17

GFSSW_925_temp_069.txt.gz
Temp
16 17 17 18 18 18 18 19 19 19 20 20 20 21 21 23 24 23 23 26 26 26 26 26 25 26 26 24 25 24 19 19 22 25 25 25 25 25 24 24 24 24 22 21 20
16 16 18 18 18 19 19 19 19 19 20 20 20 21 22 22 23 23 26 26 26 26 26 25 24 25 22 24 23 21 18 21 23 24 24 23 23 23 24 22 22 22 18 18 18
17 17 17 18 18 19 19 19 19 20 20 21 21 21 21 22 22 24 26 26 26 26 26 26 26 25 25 24 23 22 20 22 23 23 24 23 22 23 23 21 20 21 17 15 16
16 16 17 18 18 19 19 19 19 20 20 20 21 21 22 22 24 26 26 26 26 26 25 26 25 24 24 23 24 23 23 23 23 25 24 23 22 21 21 22 22 21 18 16 14
16 17 17 18 18 19 19 19 20 20 21 21 21 21 22 21 22 26 26 26 26 26 26 25 24 23 23 23 23 24 23 22 22 21 22 22 21 20 20 21 20 20 20 16 15
17 17 18 19 19 19 19 20 20 20 21 21 21 21 21 22 26 26 26 25 26 26 26 26 24 24 23 23 23 23 22 21 21 21 22 22 21 22 21 21 21 20 19 16 16
17 17 18 19 19 19 19 20 20 21 21 21 21 21 21 21 26 26 25 25 25 25 25 25 25 24 22 22 23 23 22 19 21 22 21 22 21 20 21 20 20 19 19 18 16
17 18 18 19 19 19 19 20 21 21 21 21 21 21 20 25 25 25 25 25 25 25 24 24 24 23 23 22 21 22 21 20 22 23 21 23 20 23 22 22 22 20 19 18 18
17 18 18 18 19 19 19 20 21 21 21 21 21 21 21 25 25 25 25 25 25 24 24 24 23 22 22 21 18 20 20 21 21 23 21 21 20 20 22 21 20 19 18 18 19
18 18 18 18 19 19 20 20 21 21 21 21 21 21 23 24 25 25 25 25 25 23 23 22 20 19 18 19 20 20 21 21 20 22 22 20 18 21 21 21 20 19 18 18 19
18 18 18 18 19 19 20 21 20 20 20 20 21 22 24 24 24 24 24 24 24 23 21 21 19 19 20 21 22 22 21 19 19 21 21 20 19 20 21 21 19 18 18 18 19
18 18 18 18 19 19 19 18 21 21 20 21 22 23 24 24 24 23 25 23 22 20 21 20 19 20 23 23 22 22 21 19 19 22 21 19 19 20 21 22 19 19 20 19 18
17 18 18 19 19 20 19 21 21 21 19 23 22 23 23 24 23 23 23 22 22 21 21 19 21 22 23 22 21 21 20 20 20 18 19 19 18 20 22 20 20 20 20 19 19
18 18 18 19 19 20 20 21 21 21 19 22 22 22 23 23 22 23 24 23 23 21 21 21 22 23 23 22 22 20 21 20 20 17 17 19 17 19 21 21 20 19 17 17 16
18 18 19 19 19 20 21 21 21 21 18 22 21 23 22 22 22 22 22 22 21 21 21 21 22 22 22 21 22 20 20 19 20 18 17 18 16 18 20 20 21 20 17 16 15
18 18 18 18 19 20 20 21 20 17 18 22 21 21 21 22 22 21 21 22 22 21 21 19 21 21 21 21 21 20 20 18 18 16 16 18 19 20 21 20 21 18 16 16 15
18 18 18 18 19 19 20 19 17 17 23 21 21 21 21 21 21 21 20 19 19 20 20 22 20 20 21 20 20 19 17 16 18 16 18 19 19 19 22 20 19 17 16 16 15
17 18 18 19 19 19 20 16 18 20 22 23 23 22 21 22 21 21 21 19 19 21 19 20 20 20 20 21 20 19 18 16 19 17 18 18 18 21 22 19 18 17 16 16 16
17 18 17 19 19 19 15 15 17 20 23 22 22 21 21 22 23 21 19 20 21 21 20 20 21 19 19 20 20 20 18 18 18 17 16 17 19 21 20 21 20 17 17 16 16
17 18 18 18 19 19 15 16 19 23 22 23 21 20 20 20 20 20 21 22 20 21 20 21 20 20 18 19 18 19 18 18 15 17 17 16 19 19 21 21 18 19 19 17 18
17 15 16 17 19 13 14 16 21 22 22 22 22 22 23 21 20 21 23 21 21 20 20 21 18 19 19 17 17 16 17 18 16 14 15 14 15 17 20 19 18 17 17 16 17
15 15 16 17 14 12 14 19 20 21 21 21 21 21 22 22 22 22 22 21 20 19 20 19 16 17 18 18 18 17 18 16 15 17 14 13 15 20 18 17 17 16 16 15 16
13 13 15 16 13 13 17 20 20 21 20 20 20 20 21 22 21 21 18 19 19 20 19 19 16 15 17 18 18 19 19 18 16 14 14 15 15 18 18 18 16 15 15 14 14
13 14 12 12 12 16 17 18 19 19 20 20 20 21 20 20 21 21 18 18 18 18 17 17 16 16 15 18 17 17 18 18 16 14 15 16 18 19 17 17 17 15 14 13 13
11 13 14 12 13 15 17 18 18 18 18 19 20 19 19 18 19 19 19 17 17 15 17 16 15 16 16 16 16 16 16 16 15 16 15 17 16 17 17 17 16 14 13 13 13
12 13 13 14 16 14 14 16 19 19 17 18 18 19 17 18 19 19 19 16 17 15 15 14 15 16 15 16 15 15 15 15 15 16 16 16 16 16 16 15 14 13 13 13 12
13 13 13 14 15 14 14 16 18 19 19 19 18 17 18 17 16 16 16 16 16 15 14 13 13 14 13 15 14 14 15 16 16 16 16 16 16 15 14 14 14 13 12 12 11